Lid_Strength_Index
-1 -1 -1 -2 -1 -1 -2 -2 -2 -1 -1 -1 -1 -2 -2 -2 -2 1 4 2 0 -5 -4 1 1 2 2 4 3 3 7 9 9 9 8 6 6 6 6 6 6 6 6 5 3
-1 -1 -1 -1 -1 -1 -2 -1 -1 -1 -2 -2 -2 -1 -1 -2 1 3 -1 -4 -4 -4 1 2 3 2 4 5 4 5 8 8 6 6 6 5 6 6 6 6 6 6 6 5 4
-1 -1 -1 -1 -1 -1 -2 -1 -1 -2 -2 -2 -2 -2 -2 -1 3 4 -4 -4 -4 -2 1 2 2 3 5 4 5 5 7 6 6 5 5 5 6 5 6 6 5 6 5 6 4
-1 -1 -1 -1 -1 -1 -1 -1 -1 -1 -2 -2 -2 -2 -2 1 7 3 -4 -4 -5 0 2 3 3 4 6 7 6 7 6 5 5 6 6 6 5 6 5 5 5 5 5 5 5
-0 -1 -1 -1 -1 -1 -1 -1 -1 -1 -1 -1 -2 -2 1 5 5 2 -4 -2 1 1 3 3 4 4 7 7 7 7 7 7 7 7 7 6 7 7 6 5 5 6 6 6 5
-0 -1 -1 -2 -1 -1 -1 -1 -1 -1 -1 -1 -1 -1 3 7 2 2 2 2 2 2 3 3 5 5 6 7 7 7 7 8 7 7 7 8 8 8 7 7 6 6 6 5 5
-0 -0 -1 -1 -1 -1 -1 -1 -1 -1 -1 -1 -1 2 5 5 3 3 3 3 2 2 4 4 4 5 6 8 7 7 9 8 8 7 8 8 9 9 6 7 7 7 6 6 5
-0 -0 -0 -1 -1 -1 -1 -0 -0 -0 -1 -1 -0 4 6 3 3 4 2 3 3 3 3 4 4 5 6 6 7 8 8 9 8 8 8 8 10 8 8 7 7 7 6 6 6
0 0 0 -0 -0 -0 -0 -0 -0 -1 -1 -1 3 5 7 2 5 4 3 4 4 4 4 4 4 6 6 7 8 9 10 10 10 8 9 9 9 8 8 8 7 7 7 7 7
1 1 1 0 0 0 0 0 0 0 2 2 4 6 5 7 5 5 4 4 5 5 5 5 5 6 7 8 10 10 10 11 11 10 9 9 9 8 7 8 8 8 7 7 7
1 1 1 0 0 1 1 2 5 6 5 6 7 7 7 5 5 5 5 5 5 6 8 7 8 9 9 9 10 10 11 11 10 10 11 10 10 9 8 9 9 8 8 8 8
1 2 1 1 1 2 3 4 5 4 7 4 6 7 6 6 7 6 5 7 7 9 8 8 9 8 9 9 10 10 11 11 10 11 11 10 10 8 9 9 9 9 8 8 8
1 2 2 1 2 3 4 5 3 3 7 7 6 6 7 6 7 7 6 7 8 9 9 10 9 9 10 10 11 11 11 12 12 11 11 11 10 10 9 9 9 9 9 9 8
1 2 2 3 4 4 4 4 3 4 10 9 8 7 7 6 8 7 6 7 9 10 9 9 9 10 10 11 10 12 11 12 13 12 12 12 12 10 10 10 10 9 9 9 8
3 2 2 4 4 5 5 3 3 7 16 10 9 6 8 8 8 8 7 7 9 10 9 11 10 11 11 11 10 12 11 12 12 12 12 12 13 10 11 11 10 9 9 8 8
2 3 5 4 4 4 4 4 5 11 15 12 9 9 9 9 9 8 8 7 8 10 10 10 10 10 10 11 11 11 11 11 11 11 13 13 13 11 11 10 10 9 9 8 8
1 2 3 4 5 4 4 6 11 14 10 12 11 10 10 10 10 10 10 10 11 12 12 11 11 11 11 11 11 11 12 13 13 13 14 14 14 11 9 10 9 9 9 8 8
2 2 3 3 4 3 5 9 15 12 11 10 11 11 11 10 10 11 11 11 10 11 12 13 14 11 11 11 11 12 12 13 15 14 13 14 14 10 10 10 9 9 8 8 7
3 3 3 3 3 3 8 13 13 12 10 11 11 12 12 11 11 11 11 11 10 10 12 13 13 13 12 12 11 13 13 12 14 14 14 12 11 10 10 10 10 9 9 7 7
5 5 4 3 3 5 9 12 11 11 11 10 12 10 12 12 12 11 11 10 10 10 9 11 14 13 13 12 12 12 11 14 13 15 15 13 13 11 11 10 9 9 8 7 6
6 8 6 4 3 8 12 11 10 10 10 11 11 12 11 12 11 12 12 11 10 11 10 10 12 14 13 13 13 14 13 13 13 13 13 13 11 9 9 9 9 8 8 6 6
7 10 8 4 10 9 12 10 9 10 10 10 11 11 11 11 12 12 12 11 10 10 12 10 11 14 13 13 13 13 12 12 13 14 14 14 11 10 9 8 8 8 7 6 6
8 9 8 7 13 12 11 10 9 10 10 11 11 10 11 11 12 11 11 10 10 10 11 11 12 14 14 13 13 14 13 13 13 12 14 13 11 10 10 10 9 8 8 7 7
9 12 11 10 10 12 12 12 11 8 9 10 11 10 12 12 11 12 12 11 10 10 9 9 11 13 14 13 12 15 14 14 13 14 13 13 10 9 9 9 9 9 8 7 7
8 10 11 15 13 12 12 11 12 12 9 9 10 11 11 12 12 12 11 11 11 9 10 10 13 12 12 13 13 13 14 14 14 13 14 12 12 10 8 8 8 8 8 8 8
8 10 9 12 11 12 12 11 12 11 11 11 11 10 11 12 11 11 10 10 10 11 11 11 12 13 13 12 13 14 13 13 14 13 13 13 13 9 9 8 9 8 8 9 8
6 7 8 10 12 13 12 11 11 10 10 9 10 10 11 10 9 8 8 9 8 10 11 11 12 13 14 13 14 15 13 13 13 12 12 14 11 9 10 10 9 8 8 8 8